This is the latest recevied weather packets stored in our database for station/object HS6PNA-1. If no packets are shown the sender has not sent any weather packets the latest 10 day(s).
| Time | Temp. | Humidity | Pressure | Rain* | Wind** | Luminosity | Snow |
|---|---|---|---|---|---|---|---|
| 1777734775 | 34.44° C | 61% | 1004 hPa | - | - | 0 W/m² | - |
| 1777733851 | 34.44° C | 53% | 1004 hPa | - | - | 0 W/m² | - |
| 1777732926 | 34.44° C | 53% | 1004 hPa | - | - | 0 W/m² | - |
| 1777732001 | 35° C | 52% | 1003 hPa | - | - | 0 W/m² | - |
| 1777731077 | 35° C | 51% | 1003 hPa | - | - | 0 W/m² | - |
| 1777730152 | 34.44° C | 53% | 1003 hPa | - | - | 0 W/m² | - |
| 1777729228 | 35° C | 51% | 1002 hPa | - | - | 0 W/m² | - |
| 1777728303 | 35.56° C | 51% | 1002 hPa | - | - | 0 W/m² | - |
| 1777727379 | 35.56° C | 50% | 1001 hPa | - | - | 0 W/m² | - |
| 1777726454 | 35.56° C | 51% | 1001 hPa | - | - | 0 W/m² | - |
| 1777725529 | 35.56° C | 51% | 1001 hPa | - | - | 0 W/m² | - |
| 1777724605 | 35.56° C | 51% | 1001 hPa | - | - | 0 W/m² | - |
| 1777723680 | 35.56° C | 50% | 1001 hPa | - | - | 0 W/m² | - |
| 1777722755 | 35.56° C | 48% | 1000 hPa | - | - | 0 W/m² | - |
| 1777722079 | 35.56° C | 49% | 1000 hPa | - | - | 0 W/m² | - |
| 1777721155 | 36.11° C | 47% | 1000 hPa | - | - | 2 W/m² | - |
| 1777720230 | 37.22° C | 45% | 1000 hPa | - | - | 6 W/m² | - |
| 1777719306 | 37.22° C | 45% | 1000 hPa | - | - | 17 W/m² | - |
| 1777718381 | 37.78° C | 42% | 1000 hPa | - | - | 31 W/m² | - |
| 1777717457 | 38.89° C | 34% | 999 hPa | - | - | 24 W/m² | - |
| 1777716532 | 39.44° C | 33% | 1000 hPa | - | - | 55 W/m² | - |
| 1777715607 | 40° C | 34% | 999 hPa | - | - | 80 W/m² | - |
| 1777714683 | 40° C | 33% | 999 hPa | - | - | 112 W/m² | - |
| 1777713758 | 40.56° C | 33% | 1000 hPa | - | - | 130 W/m² | - |
| 1777712834 | 40.56° C | 32% | 1000 hPa | - | - | 218 W/m² | - |
* Rain since midnight (hover to see other rain measurements)
** Current wind speed in m/s (hover to see current wind gust speed)